ROMMA est une association bénévole à but non lucratif. Votre soutien est indispensable : ADHERER à ROMMA ou FAIRE un DON

Voiron - (38, Isère)

Voironnais (300 m)   Longitude: 05° 35' E   Latitude: 45° 23' N Station partenaire n°109
 

Détail journalier du     <<     >>

Température Precipitation Humidité Pression Vent Dir Rafale Dir. rafale Ensol.
Heure (°C) (mm) (%) (hPa) (km/h) (km/h) (min)
01:00 19.606910152NO5NO0
02:00 18.607110141NO3NO0
03:00 17.607410142NO5NO0
04:00 17.2075101405NO0
05:00 16.707810131S5OSO0
06:00 16.307910141S5NO0
07:00 17.507510142S5SSO30
08:00 18.907210155SE19ESE0
09:00 21.206110153ENE18ENE0
10:00 23.305010143ENE15ENE60
11:00 23.305110146S13SSE60
12:00 24.205010136SSE16SSE60
13:00 25.105210137SE18SO60
14:00 26.604810136S19S60
15:00 27.2045101210SSO24SSE60
16:00 28.0043101212SSO27SSO60
17:00 28.9042101210SSO27SSO60
18:00 28.704010118OSO24SO30
19:00 28.003910127SSO23SSO60
20:00 26.604210126SSO15SO0
21:00 25.404410136SSE23SO0
22:00 23.704810136SSE18S0
23:00 21.605810142ENE10SSE0
minuit 20.306210152NO6NNO0

Graphique du 19-06-2019

 

Serveur OMMA